Terminal Aerodrome Forecast
Issued by NWS Wilmington, OH

Current Version | Previous Version | Graphics & Text | Print | Product List | Glossary On
Versions: 1 2 3 4 5 6 7 8 9 10 11 12 13 14
659
FTUS41 KILN 231731
TAFILN
TAF
KILN 231731Z 2318/2418 VRB04KT P6SM FEW250
     FM241500 10007KT P6SM FEW250=

USA.gov is the U.S. government's official web portal to all federal, state and local government web resources and services.